TimeCDT,TemperatureF,Dew PointF,Humidity,Sea Level PressureIn,VisibilityMPH,Wind Direction,Wind SpeedMPH,Gust SpeedMPH,PrecipitationIn,Events,Conditions,WindDirDegrees,DateUTC
12:53 AM,37.9,35.1,89,30.23,10.0,NW,3.5,-,N/A,,Clear,310,2012-10-29 05:53:00
1:53 AM,43.0,33.1,68,30.23,-9999.0,Variable,3.5,-,N/A,,Clear,0,2012-10-29 06:53:00
2:53 AM,42.1,33.1,70,30.24,10.0,NNE,3.5,-,N/A,,Clear,30,2012-10-29 07:53:00
3:53 AM,41.0,34.0,76,30.23,-9999.0,Variable,3.5,-,N/A,,Clear,0,2012-10-29 08:53:00
4:53 AM,41.0,34.0,76,30.24,-9999.0,Calm,Calm,-,N/A,,Clear,0,2012-10-29 09:53:00
5:53 AM,41.0,32.0,70,30.25,-9999.0,NNE,3.5,-,N/A,,Clear,20,2012-10-29 10:53:00
6:53 AM,39.0,32.0,76,30.25,-9999.0,Calm,Calm,-,N/A,,Clear,0,2012-10-29 11:53:00
7:53 AM,39.0,32.0,76,30.27,-9999.0,Calm,Calm,-,N/A,,Clear,0,2012-10-29 12:53:00
8:53 AM,44.1,33.1,65,30.30,-9999.0,North,4.6,-,N/A,,Clear,10,2012-10-29 13:53:00
9:53 AM,48.9,34.0,56,30.30,-9999.0,NE,9.2,17.3,N/A,,Clear,40,2012-10-29 14:53:00
10:53 AM,52.0,34.0,50,30.31,10.0,NE,12.7,19.6,N/A,,Clear,40,2012-10-29 15:53:00
12:53 PM,55.0,30.9,40,30.27,10.0,North,9.2,-,N/A,,Clear,10,2012-10-29 17:53:00
1:53 PM,57.9,30.0,35,30.23,10.0,NW,10.4,-,N/A,,Clear,320,2012-10-29 18:53:00
2:53 PM,57.9,30.0,35,30.21,10.0,NNW,9.2,-,N/A,,Clear,340,2012-10-29 19:53:00
3:53 PM,57.9,28.9,33,30.19,10.0,North,8.1,-,N/A,,Clear,350,2012-10-29 20:53:00
4:53 PM,57.0,27.0,32,30.17,10.0,NNE,4.6,-,N/A,,Clear,30,2012-10-29 21:53:00
5:53 PM,54.0,30.9,41,30.17,10.0,NNW,3.5,-,N/A,,Clear,330,2012-10-29 22:53:00
6:53 PM,46.0,37.0,71,30.17,10.0,Calm,Calm,-,N/A,,Clear,0,2012-10-29 23:53:00
7:53 PM,46.0,34.0,63,30.17,10.0,Calm,Calm,-,N/A,,Clear,0,2012-10-30 00:53:00
8:53 PM,42.1,36.0,79,30.16,10.0,Calm,Calm,-,N/A,,Clear,0,2012-10-30 01:53:00
9:53 PM,41.0,35.1,79,30.16,7.0,Calm,Calm,-,N/A,,Clear,0,2012-10-30 02:53:00
10:53 PM,37.9,35.1,89,30.15,10.0,West,3.5,-,N/A,,Clear,270,2012-10-30 03:53:00
11:53 PM,41.0,35.1,79,30.13,10.0,Calm,Calm,-,N/A,,Clear,0,2012-10-30 04:53:00